Regional Weather Roundup
Issued by NWS

Home | Current Version | Previous Version | Text Only | Print | Product List | Glossary Off
Versions: 1 2 3 4 5 6 7 8 9 10 11 12 13 14 15 16 17 18 19 20 21 22 23 24 25 26 27 28 29 30 31 32 33 34 35 36 37 38 39 40 41 42 43 44 45 46 47 48 49 50

170
ASUS43 KLSX 061707
RWRMO

WEATHER SUMMARY FOR MISSOURI
NATIONAL WEATHER SERVICE SPRINGFIELD MO
1100 AM CST TUE DEC 06 2016

NOTE: "FAIR" INDICATES FEW OR NO CLOUDS BELOW 12,000 FEET WITH NO
       SIGNIFICANT WEATHER AND/OR OBSTRUCTIONS TO VISIBILITY.
       CURRENT SKY AND/OR WEATHER CONDITIONS ARE NOT AVAILABLE FOR
       CHILLICOTHE AND FARMINGTON.

MOZ001>031-035>038-043-044-053-054-061800-
...NORTHERN AND WESTERN MISSOURI...

CITY           SKY/WX    TMP DP  RH WIND       PRES   REMARKS
KANSAS CTY INT MOSUNNY   34  14  43 NW17G26   30.05R WCI  23
KANSAS C DTWN  SUNNY     37  15  40 NW14G25   30.05R WCI  28
LEE`S SUMMIT   SUNNY     36  16  44 NW12G22   30.05R WCI  28
ST JOSEPH      SUNNY     32  16  51 NW18      30.06R WCI  20
CHILLICOTHE      N/A     36  19  50 NW12G23   30.01R WCI  28
KIRKSVILLE     SUNNY     36  21  54 NW18G24   29.94R WCI  26

$$
MOZ066>068-077>081-088>096-101>105-061800-
...SOUTHWEST MISSOURI...

CITY           SKY/WX    TMP DP  RH WIND       PRES   REMARKS
SPRINGFIELD    CLOUDY    40  33  76 N15       29.99S
JOPLIN         MOSUNNY   38  27  64 N15       30.06R WCI  29
BRANSON        CLOUDY    39  37  93 NW13      29.99R FOG

$$
MOZ032>034-039>042-045>050-055>058-069>072-061800-
...CENTRAL MISSOURI...

CITY           SKY/WX    TMP DP  RH WIND       PRES   REMARKS
COLUMBIA       CLOUDY    36  35  96 NW15      29.96R WCI  27
JEFFERSON CITY CLOUDY    36  34  92 NW9       29.98R FOG     WCI  29
ROLLA          LGT SNOW  34  34 100 NW15      29.96R FOG     WCI  24
SEDALIA        CLOUDY    37  23  56 NW18G25   30.02R WCI  27
WHITEMAN AFB   MOSUNNY   38  21  51 N14       30.02R WCI  29
OSAGE BEACH    CLOUDY    39  36  89 VRB6      30.00S

$$
MOZ051-052-059>065-061800-
...EAST CENTRAL MISSOURI...

CITY           SKY/WX    TMP DP  RH WIND       PRES   REMARKS
ST LOUIS INTL  CLOUDY    41  34  76 NW14G22   29.92R
SPIRIT OF STL  CLOUDY    40  36  86 NW15      29.93R
ST CHARLES     CLOUDY    40  36  86 NW13      29.91R

$$
MOZ072>076-082>087-097>100-106>115-061800-
...SOUTH CENTRAL AND SOUTHEAST MISSOURI...

CITY           SKY/WX    TMP DP  RH WIND       PRES   REMARKS
CAPE GIRARDEAU CLOUDY    43  36  76 N16       29.87R
FARMINGTON     CLOUDY    39  36  89 NW13      29.91R
POPLAR BLUFF   SUNNY     50  39  66 N13       29.88R
WEST PLAINS    CLOUDY    43  37  79 NW13G20   29.94R

$$



USA.gov is the U.S. government's official web portal to all federal, state and local government web resources and services.